COSMOS 1803

导读 | 豆包AI

COSMOS 1803(宇宙1803)是苏联(独联体时期,CIS)于1986年12月2日08时发射的人造卫星,隶属于全球规模最大的“宇宙号”卫星系列。该系列自1962年启动,混编多类用途卫星,多数为军用任务航天器,涵盖侦察、通信、技术试验等领域。作为冷战末期发射的航天器,它延续了苏联宇宙系列常态化航天部署,是该系列超过2450颗卫星中的一员,服务于当时苏联的空间科研与军事应用需求。

Basic Information
目录编号:
17177
目录名称:
COSMOS 1803
国际标识:
1986-094A
轨道中心:
EARTH
卫星名称:
COSMOS 1803
卫星全名:
--
卫星状态:
在轨 (已飞行14337 天)
发射日期:
1986-12-02 UTC
国别 :
俄罗斯(独联体) (CIS)
星等 :
--
Orbit Information
数据来源 国际轨道数据 AOE轨道数据
星历时间 2026-03-04T08:14:45+0800
9小时前
查看轨道信息
2026-03-04T07:00:00+0800
10小时前
查看轨道信息
半长轴 7878.18km 7878.179km
偏心率 0.0002615 0.0002616
轨道倾角 82.600° 82.600°
近地点辐角 330.204° 332.704°
升交点赤经 74.967° 74.999°
平近点角 57.702° 183.290°
近地点 1497.982km 1497.981km
远地点 1502.104km 1502.103km
周期 115.984分钟 115.984分钟
每日圈数 12.415492 12.415496
Detailed Information
使用方式:
暂无
2D Orbit Map
3D Orbit Map
Orbit Altitude Analysis Chart
Orbit Inclination Analysis Chart
Orbit Comprehensive Analysis Chart
View Comprehensive Chart